Location: Dongjum
(53.2096°N, 5.5439°E)
Time: 14:03:31
(UTC+00:00)

Daily predictions for brighter satellites

Satellite Brightness Start Highest point End
(mag) Time Altitude Azimuth Time Altitude Azimuth Time Altitude Azimuth
SL-16 R/B 3.0 16:23:13 10° NW 16:28:50 60° WSW 16:34:24 10° SSE
Cosmos 2228 4.1 16:25:55 10° NNE 16:29:20 23° ENE 16:32:43 10° ESE
Cosmos 2263 Rocket 3.5 16:25:58 10° SSE 16:30:06 21° E 16:34:14 10° NE
NOAA 11 4.4 16:25:07 10° SE 16:30:25 51° ENE 16:35:45 10° N
SMAP 3.1 16:26:44 10° SSE 16:31:20 60° ENE 16:35:56 10° N
Cosmos 1315 Rocket 3.8 16:28:49 10° N 16:32:06 24° ENE 16:35:24 10° ESE
ADEOS Rocket 3.2 16:27:06 10° NNE 16:33:32 82° WNW 16:39:19 10° SSW
H-2A R/B 3.4 16:30:20 10° E 16:33:36 18° NE 16:36:55 10° NNE
Abrixas rocket 4.4 16:31:39 10° WSW 16:33:38 19° SSW 16:35:37 10° SSE
Lacrosse 4 Rocket 4.3 16:30:16 10° WNW 16:33:59 26° WSW 16:37:41 10° SSW
NOSS 3-4 (A) 3.6 16:29:22 10° SSW 16:35:08 58° SE 16:41:22 10° NE
NOSS 3-4 (C) 3.7 16:29:29 10° SSW 16:35:15 58° SE 16:41:29 10° NE
CZ-4B DEB 4.4 16:30:20 10° SSE 16:35:50 83° WSW 16:41:25 10° NNW
CORIOLIS 4.2 16:31:10 10° SSE 16:36:29 62° ENE 16:41:49 10° N
Genesis I 4.1 16:34:41 10° WSW 16:38:22 41° NW 16:42:06 10° NE
Cosmos 2034 Rocket 4.1 16:32:49 10° N 16:39:12 89° WSW 16:45:27 10° S
NOAA 12 4.1 16:35:13 10° SSE 16:40:26 75° ENE 16:45:42 10° NNW
Cosmos 1300 3.6 16:38:04 10° N 16:41:24 27° ENE 16:44:42 10° SE
Cosmos 1943 3.3 16:37:01 10° NNW 16:42:39 58° NE 16:48:14 10° SE
In-Cosmos 22 4.1 16:39:06 10° S 16:44:35 79° E 16:49:58 10° NNE
Cosmos 2279 Rocket 4.4 16:42:55 10° N 16:48:47 39° ENE 16:54:36 10° SE
Cosmos 1908 3.2 16:45:59 10° N 16:49:52 87° E 16:53:45 10° S
Cosmos 2082 Rocket 4.1 16:49:34 10° NNW 16:52:22 14° N 16:55:10 10° NE
Cosmos 2219 3.8 16:46:42 10° SW 16:52:22 58° NW 16:58:02 10° NNE
Cosmos 1726 Rocket 4.4 16:48:40 10° N 16:52:24 27° ENE 16:56:08 10° SE
ATLAS 2AS CENTAUR R/B 3.2 16:44:57 10° SSW 16:52:45 63° SE 17:00:25 10° NE
Lacrosse 5 2.1 16:48:25 10° WNW 16:53:25 58° N 16:58:26 10° E
Cosmos 773 Rocket 4.3 16:50:07 10° NNW 16:55:06 44° NE 17:00:01 10° SE
ARGOS 4.3 16:51:31 10° E 16:55:24 21° NE 16:59:18 10° N
Helios 1A Rocket 4.3 16:54:22 10° ESE 16:57:15 19° ENE 17:00:09 10° NNE
Cosmos 1833 Rocket 4.4 16:54:36 10° NNW 16:57:49 15° NNE 17:00:47 11° NE
Cosmos 1634 Rocket 4.0 16:52:31 10° N 16:58:44 65° ENE 17:04:57 10° SSE
Cosmos 1707 4.0 16:56:01 10° SW 16:59:41 42° WNW 17:03:22 10° N
Okean-O 3.5 17:01:19 10° ESE 17:05:02 27° ENE 17:08:46 10° N
COSMO-SKYMED 1 3.5 17:02:26 10° NE 17:06:09 27° E 17:09:51 10° SSE
AQUARIUS 4.3 17:01:50 10° SSE 17:06:19 79° WSW 17:10:51 10° NNW
Cosmos 2344 4.3 16:59:29 10° WNW 17:07:17 48° NNE 17:16:36 12° E
Landsat 5 3.3 17:04:26 10° NNE 17:08:30 89° ENE 17:12:25 10° SSW
SeaSat 1 3.7 17:05:19 10° NNE 17:09:49 36° NW 17:14:18 10° WSW
Cosmos 1536 Rocket 3.5 17:06:03 10° S 17:10:25 77° E 17:14:52 10° NNE
Cosmos 2227 Rocket 2.9 17:05:20 10° SW 17:10:53 53° NW 17:16:28 10° NNE
Cosmos 1674 2.8 17:08:46 10° SSW 17:12:36 78° W 17:16:29 10° N
ERS-2 3.6 17:12:02 17° ENE 17:12:47 18° E 17:15:18 10° SE
RESURS DK-1 2.9 17:09:24 10° S 17:13:15 40° ESE 17:16:12 16° NE
Okean O Rocket 1.8 17:08:53 10° S 17:13:21 76° WSW 17:17:48 10° NNW
CZ-4C R/B 3.0 17:11:35 10° N 17:14:45 68° WNW 17:17:52 10° SSW
CZ-4B R/B 2.3 17:12:30 13° NE 17:15:04 30° E 17:18:06 10° SSE
Cosmos 1538 Rocket 4.3 17:13:50 10° NNW 17:18:47 42° NE 17:23:41 10° SE
CZ-4C R/B 2.2 17:18:14 10° SW 17:23:22 80° SE 17:28:31 15° NE
USA 234 3.3 17:19:06 14° E 17:24:50 68° N 17:31:22 10° WNW
Cosmos 1400 Rocket 4.3 17:21:34 10° NNW 17:25:28 41° W 17:29:19 10° SSW
CZ-4B R/B 3.9 17:20:19 10° S 17:25:46 58° WSW 17:31:21 10° NNW
Cosmos 1844 Rocket 4.4 17:23:39 10° ESE 17:25:29 13° ESE 17:25:29 13° ESE
TIMED 4.5 17:21:54 10° NNW 17:26:19 89° WSW 17:30:41 10° SSE
Tsikada Rocket 4.1 17:20:18 10° SSW 17:26:39 83° W 17:32:58 10° N
CZ-2D R/B 3.2 17:26:09 10° SSE 17:29:59 64° ENE 17:33:49 10° N
Cosmos 1603 4.1 17:25:04 10° NW 17:30:44 70° WSW 17:36:25 10° SSE
Cosmos 1354 Rocket 4.1 17:26:25 10° S 17:31:36 56° ESE 17:36:16 13° NNE
Meteor 2-5 Rocket 3.6 17:26:19 10° S 17:31:50 65° E 17:37:19 10° NNE
SL-14 R/B 3.1 17:28:24 10° S 17:32:14 66° E 17:36:08 10° NNE
Cosmos 1025 Rocket 4.1 17:29:06 10° SSW 17:33:16 46° WNW 17:37:29 10° N
IRS-1C Rocket 4.0 17:29:26 10° SSE 17:34:40 69° ENE 17:39:54 10° NNW
Cosmos 2142 Rocket 4.4 17:29:06 10° N 17:35:21 83° E 17:41:30 10° SSE
Cosmos 2297 Rocket 3.5 17:30:53 10° WSW 17:36:01 34° NW 17:41:11 10° NNE
ATLAS 3B R/B 3.7 17:31:09 10° NW 17:37:48 51° SW 17:44:42 10° SSE
COSMOS 2455 3.9 17:34:06 10° SSE 17:38:50 25° ESE 17:40:26 22° E
Cosmos 1606 Rocket 3.5 17:37:52 10° N 17:42:16 88° E 17:46:40 10° S
Cosmos 1486 Rocket 4.2 17:37:39 10° SW 17:42:53 71° WNW 17:48:08 10° NNE
H-2A R/B 2.6 17:40:14 10° N 17:44:42 63° WNW 17:49:04 10° SSW
YAOGAN 1 2.6 17:41:18 10° SE 17:45:31 53° ENE 17:49:45 10° N
Cosmos 2082 4.4 17:39:57 10° SW 17:45:33 52° NW 17:51:00 11° NNE
Cosmos 968 Rocket 3.8 17:41:04 10° SW 17:46:08 63° WNW 17:51:15 10° NNE
Cosmos 1892 Rocket 3.9 17:42:04 10° SSE 17:46:09 41° E 17:48:30 22° NE
Cosmos 1626 2.7 17:47:22 10° SSW 17:51:01 59° WNW 17:54:42 10° N
CZ-2C R/B 3.1 17:45:51 10° SSE 17:51:07 89° ENE 17:56:44 10° NNW
CSL-04 Rocket 3.9 17:46:08 10° SE 17:51:15 46° ENE 17:56:28 10° N
Cosmos 1939 Rocket 3.7 17:47:39 10° S 17:51:43 55° W 17:55:47 10° NNW
Nadezhda 4 Rocket 4.3 17:47:09 10° SSE 17:52:54 40° E 17:58:37 10° NNE
CZ-4 R/B 4.4 17:49:01 10° SSE 17:53:09 84° WSW 17:57:21 10° NNW
CSL-04 DEB 4.5 17:49:21 10° NNE 17:53:40 84° WNW 17:57:50 10° SSW
SKYMED 2 3.5 17:50:08 10° NNE 17:54:26 72° ESE 17:58:47 10° S
MOS 1 Rocket 3.1 17:52:33 15° NNE 17:56:06 57° E 18:00:18 10° S
CZ-4 R/B 1.3 17:53:35 10° SSE 17:57:42 77° ENE 18:01:47 10° NNW
ATLAS 5 CENTAUR R/B 1.6 17:55:45 10° SSW 17:59:45 57° SE 18:01:05 39° ENE
Meteor 2-10 Rocket 3.5 17:57:07 10° NNW 18:02:49 79° ENE 18:08:14 10° SSE
CREW DRAGON DEMO-1 DEB 2.8 18:00:16 10° W 18:03:09 64° S 18:03:09 64° S
COSMOS 2406 4.2 17:59:27 10° NNW 18:04:20 27° NE 18:04:55 26° NE
NOSS 3-1 (C) 4.1 17:58:26 10° NW 18:05:10 53° NNE 18:09:09 29° E
Cosmos 2058 Rocket 3.0 18:02:24 10° N 18:06:55 81° E 18:11:26 10° SSE
Cosmos 2228 4.0 18:03:02 10° NNW 18:07:08 49° W 18:11:15 10° SSW
Cosmos 1315 Rocket 4.3 18:05:05 10° NNW 18:08:47 39° W 18:12:30 10° SSW
SL-08 RB Rocket 4.0 18:09:15 42° ENE 18:09:15 42° ENE 18:13:28 10° N
Cosmos 1503 Rocket 4.3 18:04:52 10° SSW 18:10:14 72° WNW 18:14:35 16° NNE
SJ 16-02 3.6 18:08:23 10° SSE 18:08:46 12° SSE 18:08:46 12° SSE
SAR-Lupe-4 4.0 18:12:53 44° SSE 18:12:53 44° SSE 18:15:38 10° S
H-2A R/B 1.8 18:07:20 10° SSE 18:12:18 84° ENE 18:17:27 10° NNW
Cosmos 2263 Rocket 2.2 18:07:40 10° SSW 18:13:22 84° WNW 18:17:05 23° NNE
USA-17 4.1 18:10:12 10° SW 18:13:38 84° NW 18:13:38 84° NW
Cosmos 1455 3.3 18:11:08 10° N 18:13:18 31° N 18:13:18 31° N
Okean 1-7 Rocket 3.7 18:11:07 10° S 18:15:33 54° E 18:16:13 49° ENE
Meteor 1-24 Rocket 3.8 18:12:53 10° SSW 18:18:15 73° WNW 18:23:35 10° N
Ariane Rocket 4.3 18:22:01 25° NNE 18:22:01 25° NNE 18:24:40 10° N
USA 229 4.1 18:13:39 10° NW 18:20:32 51° NNE 18:23:08 36° ENE
USA 229 DEB 4.1 18:13:39 10° NW 18:20:32 51° NNE 18:23:09 36° ENE
Cosmos 923 Rocket 4.0 18:15:30 10° NNW 18:20:48 59° ENE 18:22:19 43° ESE
NOSS 3-4 (A) 4.1 18:20:20 10° WSW 18:26:13 50° NNW 18:29:31 27° NE
NOSS 3-4 (C) 4.1 18:20:26 10° WSW 18:26:18 51° NNW 18:29:37 27° NE
GENESIS II 4.1 18:22:45 10° SW 18:26:42 78° SSE 18:26:42 78° SSE
Cosmos 1680 Rocket 3.5 18:24:11 10° NNW 18:29:22 54° ENE 18:29:33 53° ENE
Aureole 3 3.9 18:25:37 10° N 18:28:32 42° N 18:28:32 42° N
USA 267 3.9 18:29:51 32° ESE 18:30:22 33° SE 18:36:08 10° SSW
Helios 1A Rocket 3.2 18:27:51 10° S 18:31:59 68° WSW 18:36:09 10° NNW
Meteor 2-13 Rocket 4.3 18:26:27 10° S 18:32:30 68° E 18:38:36 10° NNE
SJ-11-01 4.5 18:29:46 10° S 18:34:27 70° WSW 18:39:10 10° NNW
ARGOS 3.1 18:29:40 10° SSE 18:35:02 88° WSW 18:40:27 10° NNW
NOSS 3-1 (A) 4.1 18:29:08 10° NW 18:35:54 53° NNE 18:38:03 42° ENE
CSL-04 Debris 4.1 18:30:58 10° SSE 18:36:22 84° WSW 18:41:48 10° NNW
Lacrosse 5 1.9 18:31:33 10° WNW 18:36:38 75° SSW 18:37:41 55° SE
Cosmos 2082 Rocket 3.6 18:33:56 10° NNW 18:37:45 24° NNE 18:37:45 24° NNE
Meteor 1-21 Rocket 4.2 18:33:21 10° S 18:38:13 54° ESE 18:38:13 54° ESE
CZ-2C R/B 3.9 18:43:10 28° SSE 18:43:10 28° SSE 18:45:56 10° S
Okean-O 3.6 18:37:02 10° S 18:41:19 47° W 18:45:38 10° NNW
USA 281 3.7 18:42:04 39° NE 18:42:04 39° NE 18:48:02 10° NNW
COSMO-SKYMED 1 3.7 18:38:46 12° N 18:42:29 43° WNW 18:46:36 10° SW
Cosmos 1833 Rocket 3.6 18:38:21 10° NNW 18:42:29 33° NNE 18:42:29 33° NNE
ATLAS 2AS CENTAUR R/B 3.4 18:36:14 10° WSW 18:44:02 57° NNW 18:48:02 30° NE
ERS-2 2.9 18:46:37 49° WNW 18:46:37 49° WNW 18:50:06 10° SW
CZ-4B R/B 3.6 18:45:36 18° NNW 18:47:12 25° WNW 18:50:01 10° WSW
Cosmos 158 Rocket 4.0 18:44:43 10° NNW 18:50:02 84° WSW 18:51:25 51° SSE
RESURS DK-1 3.7 18:47:34 10° WSW 18:51:22 33° NW 18:52:07 31° NNW
Cosmos 2227 Rocket 4.3 18:52:18 10° WNW 18:56:17 19° NNW 18:59:09 14° N
Cosmos 2112 Rocket 4.2 19:00:35 10° NNW 19:04:56 60° NNW 19:04:56 60° NNW
USA 234 3.2 19:06:28 57° SE 19:07:52 77° SSW 19:14:28 10° WNW
Cosmos 1844 Rocket 3.4 19:03:28 10° SSW 19:07:13 42° S 19:07:13 42° S
CZ-4C R/B 3.2 19:07:12 10° W 19:12:28 41° NNW 19:13:43 37° N
Cosmos 1777 Rocket 4.5 19:08:08 10° SW 19:13:19 57° WNW 19:14:04 52° NNW
Iridium 4 Rocket 3.8 19:08:45 10° N 19:14:38 78° W 19:15:36 61° SSW
Meteor 2-8 Rocket 4.4 19:08:52 10° NNW 19:14:58 82° W 19:16:19 57° S
Cosmos 1092 Rocket 3.8 19:11:02 10° S 19:17:16 90° W 19:17:18 89° N
Cosmos 2297 Rocket 4.4 19:18:39 10° NW 19:21:52 15° NNW 19:23:28 14° N
Cosmos 2344 4.1 19:14:10 10° NW 19:23:02 87° NE 19:26:40 50° SE
COSMOS 2455 2.9 19:18:07 10° SW 19:23:37 74° WSW 19:23:37 74° WSW
CZ-4 R/B 4.5 19:30:59 10° WSW 19:33:14 14° W 19:35:28 10° NW
ATLAS 5 CENTAUR R/B 3.7 19:40:33 10° W 19:42:38 25° WNW 19:42:38 25° WNW
COSMOS 2406 4.4 19:43:36 10° NNW 19:46:59 37° NNW 19:46:59 37° NNW
NOSS 3-1 (C) 4.1 19:49:16 10° NW 19:56:31 68° SW 19:56:35 68° SW
Cosmos 2263 Rocket 4.0 19:53:28 10° W 19:58:08 25° NW 19:58:48 25° NNW
USA 229 4.3 20:04:45 10° NW 20:10:35 59° WNW 20:10:35 59° WNW
USA 229 DEB 4.3 20:04:45 10° NW 20:10:36 59° WNW 20:10:36 59° WNW
USA 267 4.4 20:17:12 34° SW 20:17:12 34° SW 20:20:35 10° WSW
Lacrosse 5 4.3 20:15:07 10° WNW 20:16:54 17° W 20:16:54 17° W
Cosmos 2082 Rocket 4.3 20:17:50 10° NNW 20:19:37 21° NNW 20:19:37 21° NNW
USA 281 4.3 20:28:56 38° NW 20:28:56 38° NW 20:32:51 10° NNW
ATLAS 2AS CENTAUR R/B 4.0 20:29:15 10° WNW 20:35:28 37° NNW 20:35:28 37° NNW
